Change the Weather History Date:

Thursday, November 15, 2012

  Actual Average Record
Temperature  
Mean Temperature 66 °F -  
Max Temperature 69 °F 75 °F 84 °F (2008)
Min Temperature 62 °F 63 °F 55 °F (2000)
Growing Degree Days 16 (Base 50)    
Moisture  
Dew Point 64 °F    
Average Humidity 93    
Maximum Humidity 100    
Minimum Humidity 81    
Precipitation  
Precipitation 0.00 in - - ()
Sea Level Pressure  
Sea Level Pressure 30.11 in    
Wind  
Wind Speed 9 mph (NW)    
Max Wind Speed 17 mph    
Max Gust Speed -    
Visibility 7 miles    
Events Fog    
Averages and records for this station are not official NWS values.
T = Trace of Precipitation, MM = Missing Value Source: NWS Daily Summary

Daily Weather History Graph

Daily Weather History Graph

Search for Another Location

Airport or City:

Trip Planner

Search our weather history database for the weather conditions in past years. The results will help you decide how hot, cold, wet, or windy it might be!

Date:

Astronomy

Nov. 15, 2012 Rise Set
Actual Time 6:44 AM EST 5:29 PM EST
Civil Twilight 6:19 AM EST 5:54 PM EST
Nautical Twilight 5:51 AM EST 6:22 PM EST
Astronomical Twilight 5:23 AM EST 6:50 PM EST
Moon 8:33 AM EST (11/15) 7:24 PM EST (11/15)
Length of Visible Light 11h 34m
Length of Day
10h 44m
Waxing Crescent, 5% of the Moon is Illuminated
Nov 15
Waxing Crescent
Nov 20
First Quarter
Nov 28
Full
Dec 6
Last Quarter
Dec 13
New

Hourly Weather History & Observations

Time (EST) Temp. Dew Point Humidity Pressure Visibility Wind Dir Wind Speed Gust Speed Precip Events Conditions
12:03 AM 68.0 °F 66.2 °F 94% 30.13 in 10.0 mi SSW 6.9 mph - N/A   Overcast
12:55 AM 68.7 °F 66.0 °F 91% 30.12 in 10.0 mi West 5.8 mph - N/A   Overcast
1:55 AM 68.2 °F 66.0 °F 93% 30.10 in 10.0 mi North 9.2 mph - N/A   Mostly Cloudy
2:09 AM 68.0 °F 66.2 °F 94% 30.09 in 10.0 mi NW 12.7 mph - N/A   Overcast
2:28 AM 68.0 °F 66.2 °F 94% 30.09 in 10.0 mi NW 12.7 mph - N/A   Overcast
2:38 AM 68.0 °F 66.2 °F 94% 30.09 in 10.0 mi NNW 10.4 mph - N/A   Overcast
2:55 AM 67.3 °F 66.0 °F 96% 30.09 in 10.0 mi NNW 10.4 mph - N/A   Overcast
3:00 AM 68.0 °F 66.2 °F 94% 30.09 in 8.0 mi NNW 6.9 mph - N/A   Overcast
3:55 AM 67.3 °F 66.2 °F 96% 30.08 in 8.0 mi NNW 6.9 mph - N/A   Overcast
4:07 AM 66.2 °F 66.2 °F 100% 30.08 in 4.0 mi North 6.9 mph - N/A   Overcast
4:21 AM 66.2 °F 66.2 °F 100% 30.07 in 2.5 mi NNW 5.8 mph - N/A   Overcast
4:30 AM 66.2 °F 66.2 °F 100% 30.07 in 3.0 mi NNW 6.9 mph - N/A   Overcast
4:31 AM 66.2 °F 66.2 °F 100% 30.07 in 3.0 mi NNW 5.8 mph - N/A   Overcast
4:40 AM 66.2 °F 66.2 °F 100% 30.07 in 2.5 mi NNW 5.8 mph - N/A   Overcast
4:41 AM 66.2 °F 66.2 °F 100% 30.07 in 2.5 mi NNW 5.8 mph - N/A   Overcast
4:55 AM 66.7 °F 65.8 °F 97% 30.07 in 2.0 mi NNW 5.8 mph - N/A   Overcast
5:04 AM 66.2 °F 66.2 °F 100% 30.08 in 4.0 mi NNW 5.8 mph - N/A   Overcast
5:32 AM 66.2 °F 66.2 °F 100% 30.09 in 10.0 mi NW 6.9 mph - N/A   Overcast
5:42 AM 66.2 °F 66.2 °F 100% 30.09 in 7.0 mi NW 9.2 mph - N/A   Overcast
5:55 AM 66.6 °F 66.0 °F 98% 30.09 in 4.0 mi NW 8.1 mph - N/A   Overcast
6:03 AM 66.2 °F 66.2 °F 100% 30.09 in 5.0 mi NW 9.2 mph - N/A   Overcast
6:08 AM 66.2 °F 66.2 °F 100% 30.09 in 5.0 mi NW 6.9 mph - N/A   Overcast
6:55 AM 66.0 °F 65.5 °F 98% 30.10 in 1.2 mi WNW 9.2 mph - N/A   Overcast
7:04 AM 66.2 °F 64.4 °F 94% 30.10 in 1.8 mi NW 6.9 mph - N/A   Overcast
7:14 AM 66.2 °F 64.4 °F 94% 30.11 in 1.0 mi WNW 6.9 mph - N/A   Mist
7:23 AM 66.2 °F 64.4 °F 94% 30.11 in 0.8 mi WNW 8.1 mph - N/A   Mist
7:26 AM 64.4 °F 64.4 °F 100% 30.11 in 0.8 mi WNW 9.2 mph - N/A   Mist
7:55 AM 65.3 °F 64.8 °F 98% 30.12 in 0.5 mi NW 8.1 mph - N/A Fog Fog
8:04 AM 64.4 °F 64.4 °F 100% 30.12 in 0.8 mi NW 9.2 mph - N/A   Mist
8:19 AM 64.4 °F 64.4 °F 100% 30.13 in 0.8 mi NNW 8.1 mph - N/A   Mist
8:23 AM 64.4 °F 64.4 °F 100% 30.12 in 1.0 mi NNW 8.1 mph - N/A   Mist
8:34 AM 66.2 °F 64.4 °F 94% 30.13 in 1.2 mi NW 8.1 mph - N/A   Overcast
8:39 AM 66.2 °F 64.4 °F 94% 30.13 in 1.5 mi NW 6.9 mph - N/A   Overcast
8:43 AM 66.2 °F 64.4 °F 94% 30.13 in 1.8 mi WNW 8.1 mph - N/A   Overcast
8:55 AM 65.5 °F 64.9 °F 98% 30.13 in 2.0 mi NW 8.1 mph - N/A   Overcast
9:00 AM 66.2 °F 64.4 °F 94% 30.14 in 3.0 mi NW 10.4 mph - N/A   Overcast
9:55 AM 66.0 °F 64.8 °F 96% 30.15 in 10.0 mi NNW 10.4 mph - N/A   Overcast
9:57 AM 66.2 °F 64.4 °F 94% 30.15 in 10.0 mi NW 11.5 mph - N/A   Overcast
10:04 AM 66.2 °F 64.4 °F 94% 30.15 in 10.0 mi NW 11.5 mph - N/A   Overcast
10:30 AM 66.2 °F 64.4 °F 94% 30.15 in 10.0 mi NW 10.4 mph - N/A   Overcast
10:55 AM 66.6 °F 64.2 °F 92% 30.15 in 10.0 mi NNW 10.4 mph - N/A   Overcast
11:09 AM 68.0 °F 64.4 °F 88% 30.14 in 10.0 mi NNW 11.5 mph - N/A   Overcast
11:21 AM 68.0 °F 64.4 °F 88% 30.14 in 10.0 mi NW 13.8 mph - N/A   Overcast
11:39 AM 68.0 °F 64.4 °F 88% 30.14 in 10.0 mi NW 12.7 mph - N/A   Overcast
11:55 AM 69.1 °F 64.9 °F 87% 30.13 in 10.0 mi NW 13.8 mph - N/A   Overcast
12:00 PM 69.8 °F 64.4 °F 83% 30.13 in 10.0 mi NW 11.5 mph - N/A   Overcast
12:30 PM 69.8 °F 66.2 °F 88% 30.12 in 10.0 mi NW 11.5 mph - N/A   Overcast
12:55 PM 68.9 °F 64.6 °F 86% 30.11 in 10.0 mi NNW 10.4 mph - N/A   Overcast
1:12 PM 69.8 °F 64.4 °F 83% 30.11 in 10.0 mi NNW 9.2 mph - N/A   Overcast
1:55 PM 69.6 °F 63.7 °F 81% 30.10 in 10.0 mi NNW 12.7 mph - N/A   Overcast
2:40 PM 68.0 °F 62.6 °F 83% 30.10 in 10.0 mi NNW 12.7 mph - N/A   Overcast
2:55 PM 67.6 °F 62.6 °F 84% 30.10 in 10.0 mi North 13.8 mph - N/A   Overcast
3:55 PM 66.2 °F 61.9 °F 86% 30.10 in 10.0 mi NNW 13.8 mph - N/A   Overcast
4:24 PM 66.2 °F 60.8 °F 83% 30.11 in 10.0 mi NNW 15.0 mph - N/A   Overcast
4:55 PM 66.0 °F 61.5 °F 85% 30.11 in 10.0 mi NNW 12.7 mph - N/A   Overcast
5:55 PM 66.0 °F 61.5 °F 85% 30.11 in 10.0 mi NNW 11.5 mph - N/A   Overcast
6:55 PM 66.2 °F 60.8 °F 83% 30.12 in 10.0 mi NW 15.0 mph - N/A   Overcast
7:22 PM 66.2 °F 60.8 °F 83% 30.12 in 10.0 mi NW 15.0 mph - N/A   Scattered Clouds
8:55 PM 64.9 °F 61.0 °F 87% 30.13 in 10.0 mi NW 10.4 mph - N/A   Partly Cloudy
9:55 PM 63.7 °F 60.8 °F 90% 30.14 in 10.0 mi NW 15.0 mph - N/A   Clear
10:55 PM 63.0 °F 60.4 °F 91% 30.13 in 10.0 mi NW 15.0 mph - N/A   Partly Cloudy
11:10 PM 62.6 °F 60.8 °F 94% 30.13 in 10.0 mi NW 15.0 mph - N/A   Mostly Cloudy
11:16 PM 62.6 °F 60.8 °F 94% 30.13 in 10.0 mi NW 16.1 mph - N/A   Mostly Cloudy
11:32 PM 62.6 °F 60.8 °F 94% 30.13 in 10.0 mi NW 16.1 mph - N/A   Overcast
11:55 PM 62.4 °F 60.4 °F 93% 30.13 in 10.0 mi NW 17.3 mph - N/A   Overcast